HS5SQI-1 Weather Reports


time (UTC)temp
F
wind
direction
speed
knots
gust
knots
rain 1hr
in
rain 24hr
in
rain mn
in
humidity
%
barometer
mb
20260508010310 75 0 0.0 0.0 0.00 0.00 0.00 99 969.0
20260508005248 75 0 0.0 0.0 0.00 0.00 0.00 99 969.0
20260508004226 75 0 0.0 0.0 0.00 0.00 0.00 99 969.0
20260508003204 76 0 0.0 0.0 0.00 0.00 0.00 99 969.0
20260508002142 76 0 0.0 0.0 0.00 0.00 0.00 99 968.0
20260508001120 76 0 0.0 0.0 0.00 0.00 0.00 99 968.0
20260508000057 76 0 0.0 0.0 0.00 0.00 0.00 99 968.0
20260507235035 78 0 0.0 0.0 0.00 0.00 0.00 99 968.0
20260507234013 79 0 0.0 0.0 0.00 0.00 0.00 99 968.0
20260507232951 79 0 0.0 0.0 0.00 0.00 0.00 99 968.0
20260507231929 79 0 0.0 0.0 0.00 0.00 0.00 99 967.0
20260507230907 79 0 0.0 0.0 0.00 0.00 0.00 99 967.0
20260507225845 79 0 0.0 0.0 0.00 0.00 0.00 99 967.0
20260507224823 79 0 0.0 0.0 0.00 0.00 0.00 99 967.0
20260507223801 80 0 0.0 0.0 0.00 0.00 0.00 99 967.0
20260507222739 79 0 0.0 0.0 0.00 0.00 0.00 99 967.0
20260507221717 80 0 0.0 0.0 0.00 0.00 0.00 99 967.0
20260507220655 80 0 0.0 0.0 0.00 0.00 0.00 99 967.0
20260507215633 80 0 0.0 0.0 0.00 0.00 0.00 99 967.0
20260507214611 78 0 0.0 0.0 0.00 0.00 0.00 99 967.0
20260507213549 79 0 0.0 0.0 0.00 0.00 0.00 99 967.0
20260507212527 79 0 0.0 0.0 0.00 0.00 0.00 99 967.0
20260507211505 77 0 0.0 0.0 0.00 0.00 0.00 99 967.0
20260507210443 77 0 0.0 0.0 0.00 0.00 0.00 99 967.0
20260507205421 77 0 0.0 0.0 0.00 0.00 0.00 99 967.0
20260507204359 76 0 0.0 0.0 0.00 0.00 0.00 99 967.0
20260507203337 77 0 0.0 0.0 0.00 0.00 0.00 99 967.0
20260507202315 79 0 0.0 0.0 0.00 0.00 0.00 99 967.0
20260507201252 79 0 0.0 0.0 0.00 0.00 0.00 99 967.0
20260507200230 77 0 0.0 0.0 0.00 0.00 0.00 99 967.0
20260507195401 76 0 0.0 0.0 0.00 0.00 0.00 99 967.0
20260507194339 76 0 0.0 0.0 0.00 0.00 0.00 99 967.0
20260507193317 77 0 0.0 0.0 0.00 0.00 0.00 99 967.0
20260507192255 76 0 0.0 0.0 0.00 0.00 0.00 99 967.0
20260507191233 77 0 0.0 0.0 0.00 0.00 0.00 99 967.0
20260507190211 78 0 0.0 0.0 0.00 0.00 0.00 99 967.0
20260507185148 78 0 0.0 0.0 0.00 0.00 0.00 99 967.0
20260507184127 78 0 0.0 0.0 0.00 0.00 0.00 99 967.0
20260507183105 80 0 0.0 0.0 0.00 0.00 0.00 99 967.0
20260507182043 77 0 0.0 0.0 0.00 0.00 0.00 99 967.0
20260507181021 78 0 0.0 0.0 0.00 0.00 0.00 99 967.0
20260507175959 77 0 0.0 0.0 0.00 0.00 0.00 99 967.0
20260507174936 81 0 0.0 0.0 0.00 0.00 0.00 99 967.0
20260507173914 86 0 0.0 0.0 0.00 0.00 0.00 99 966.0
20260507172852 88 0 0.0 0.0 0.00 0.00 0.00 99 966.0
20260507171830 88 0 0.0 0.0 0.00 0.00 0.00 99 966.0
20260507170808 88 0 0.0 0.0 0.00 0.00 0.00 99 966.0
20260507165720 88 0 0.0 0.0 0.00 0.00 0.00 99 966.0
20260507164658 88 0 0.0 0.0 0.00 0.00 0.00 99 965.0
20260507163636 89 0 0.0 0.0 0.00 0.00 0.00 99 965.0
20260507162614 89 0 0.0 0.0 0.00 0.00 0.00 99 966.0
20260507161552 89 0 0.0 0.0 0.00 0.00 0.00 99 966.0
20260507160530 89 0 0.0 0.0 0.00 0.00 0.00 99 966.0
20260507155508 89 0 0.0 0.0 0.00 0.00 0.00 99 966.0
20260507154446 89 0 0.0 0.0 0.00 0.00 0.00 99 966.0
20260507153424 90 0 0.0 0.0 0.00 0.00 0.00 99 965.0
20260507152402 91 0 0.0 0.0 0.00 0.00 0.00 94 965.0
20260507151340 91 0 0.0 0.0 0.00 0.00 0.00 94 965.0
20260507150318 91 0 0.0 0.0 0.00 0.00 0.00 91 965.0
20260507145256 91 0 0.0 0.0 0.00 0.00 0.00 92 964.0
20260507144234 91 0 0.0 0.0 0.00 0.00 0.00 95 964.0
20260507143212 91 0 0.0 0.0 0.00 0.00 0.00 97 964.0
20260507142150 91 0 0.0 0.0 0.00 0.00 0.00 96 963.0
20260507141128 91 0 0.0 0.0 0.00 0.00 0.00 97 963.0
20260507140106 91 0 0.0 0.0 0.00 0.00 0.00 97 963.0
20260507135044 92 0 0.0 0.0 0.00 0.00 0.00 92 963.0
20260507134022 92 0 0.0 0.0 0.00 0.00 0.00 87 963.0
20260507133000 92 0 0.0 0.0 0.00 0.00 0.00 95 963.0
20260507131938 93 0 0.0 0.0 0.00 0.00 0.00 89 963.0
20260507130916 93 0 0.0 0.0 0.00 0.00 0.00 74 963.0
20260507125854 94 0 0.0 0.0 0.00 0.00 0.00 67 963.0
20260507124832 94 0 0.0 0.0 0.00 0.00 0.00 64 963.0
20260507123809 94 0 0.0 0.0 0.00 0.00 0.00 67 962.0
20260507122747 94 0 0.0 0.0 0.00 0.00 0.00 67 962.0
20260507121725 94 0 0.0 0.0 0.00 0.00 0.00 65 962.0
20260507120703 95 0 0.0 0.0 0.00 0.00 0.00 65 962.0
20260507115640 95 0 0.0 0.0 0.00 0.00 0.00 65 962.0
20260507114618 95 0 0.0 0.0 0.00 0.00 0.00 62 961.0
20260507113556 95 0 0.0 0.0 0.00 0.00 0.00 61 961.0
20260507112534 96 0 0.0 0.0 0.00 0.00 0.00 61 961.0
20260507111511 96 0 0.0 0.0 0.00 0.00 0.00 62 961.0
20260507110448 97 0 0.0 0.0 0.00 0.00 0.00 66 960.0
20260507105426 97 0 0.0 0.0 0.00 0.00 0.00 61 960.0
20260507104405 97 0 0.0 0.0 0.00 0.00 0.00 62 960.0
20260507103342 98 0 0.0 0.0 0.00 0.00 0.00 58 960.0
20260507102319 98 0 0.0 0.0 0.00 0.00 0.00 61 960.0
20260507101257 97 0 0.0 0.0 0.00 0.00 0.00 53 960.0
20260507100235 97 0 0.0 0.0 0.00 0.00 0.00 62 960.0
20260507095213 97 0 0.0 0.0 0.00 0.00 0.00 61 960.0
20260507094151 97 0 0.0 0.0 0.00 0.00 0.00 64 960.0
20260507093129 98 0 0.0 0.0 0.00 0.00 0.00 55 961.0
20260507092106 98 0 0.0 0.0 0.00 0.00 0.00 50 960.0
20260507091044 98 0 0.0 0.0 0.00 0.00 0.00 52 960.0
20260507090022 99 0 0.0 0.0 0.00 0.00 0.00 50 960.0
20260507085000 98 0 0.0 0.0 0.00 0.00 0.00 49 961.0
20260507083938 98 0 0.0 0.0 0.00 0.00 0.00 49 961.0
20260507082915 98 0 0.0 0.0 0.00 0.00 0.00 50 961.0
20260507081853 98 0 0.0 0.0 0.00 0.00 0.00 64 961.0
20260507080831 98 0 0.0 0.0 0.00 0.00 0.00 59 961.0
20260507075809 97 0 0.0 0.0 0.00 0.00 0.00 65 962.0
20260507074747 97 0 0.0 0.0 0.00 0.00 0.00 65 962.0
20260507073725 97 0 0.0 0.0 0.00 0.00 0.00 71 962.0
20260507072703 97 0 0.0 0.0 0.00 0.00 0.00 74 962.0
20260507071641 97 0 0.0 0.0 0.00 0.00 0.00 79 962.0
20260507070619 96 0 0.0 0.0 0.00 0.00 0.00 73 962.0
20260507065557 96 0 0.0 0.0 0.00 0.00 0.00 83 962.0
20260507064534 96 0 0.0 0.0 0.00 0.00 0.00 77 963.0
20260507063512 95 0 0.0 0.0 0.00 0.00 0.00 75 963.0
20260507062450 95 0 0.0 0.0 0.00 0.00 0.00 78 963.0
20260507061428 95 0 0.0 0.0 0.00 0.00 0.00 84 963.0
20260507060406 94 0 0.0 0.0 0.00 0.00 0.00 74 964.0
20260507055343 94 0 0.0 0.0 0.00 0.00 0.00 87 964.0
20260507054321 94 0 0.0 0.0 0.00 0.00 0.00 95 964.0
20260507053259 93 0 0.0 0.0 0.00 0.00 0.00 99 965.0
20260507052236 93 0 0.0 0.0 0.00 0.00 0.00 99 965.0
20260507051214 92 0 0.0 0.0 0.00 0.00 0.00 99 965.0
20260507050152 93 0 0.0 0.0 0.00 0.00 0.00 99 965.0
20260507045130 92 0 0.0 0.0 0.00 0.00 0.00 99 965.0
20260507044108 91 0 0.0 0.0 0.00 0.00 0.00 99 965.0
20260507043046 91 0 0.0 0.0 0.00 0.00 0.00 99 965.0
20260507042024 90 0 0.0 0.0 0.00 0.00 0.00 99 965.0
20260507041001 90 0 0.0 0.0 0.00 0.00 0.00 99 966.0
20260507035939 90 0 0.0 0.0 0.00 0.00 0.00 99 966.0
20260507034917 90 0 0.0 0.0 0.00 0.00 0.00 99 966.0
20260507033855 89 0 0.0 0.0 0.00 0.00 0.00 99 966.0
20260507032833 89 0 0.0 0.0 0.00 0.00 0.00 99 966.0
20260507031811 88 0 0.0 0.0 0.00 0.00 0.00 99 966.0
20260507030749 87 0 0.0 0.0 0.00 0.00 0.00 99 966.0
20260507025726 87 0 0.0 0.0 0.00 0.00 0.00 99 966.0
20260507024704 87 0 0.0 0.0 0.00 0.00 0.00 99 966.0
20260507023642 86 0 0.0 0.0 0.00 0.00 0.00 99 966.0
20260507022619 86 0 0.0 0.0 0.00 0.00 0.00 99 967.0
20260507021557 85 0 0.0 0.0 0.00 0.00 0.00 99 967.0
20260507020535 85 0 0.0 0.0 0.00 0.00 0.00 99 967.0
20260507015513 85 0 0.0 0.0 0.00 0.00 0.00 99 967.0
20260507014451 85 0 0.0 0.0 0.00 0.00 0.00 99 967.0
20260507013429 84 0 0.0 0.0 0.00 0.00 0.00 99 967.0
20260507012406 84 0 0.0 0.0 0.00 0.00 0.00 99 967.0
20260507011344 84 0 0.0 0.0 0.00 0.00 0.00 99 966.0